Location: Melara
(45.0500°N, 11.1833°E)
Time: 01:29:31
(UTC+00:00)

Cosmos 1328 - Pass Details

Date: 26 May 2022
Orbit: 524 x 551 km, 82.5° (Epoch: 26 June)

Event Time Altitude Azimuth Distance (km) Brightness Sun altitude
Exits shadow 02:52:37 - 212° (SSW) 1,973 6.0 -7.0°
Reaches altitude 10° 02:53:05 10° 214° (SW) 1,789 5.8 -7.0°
Maximum altitude 02:56:46 38° 284° (WNW) 836 4.5 -6.5°
Drops below altitude 10° 03:00:32 10° 353° (N) 1,820 6.9 -5.9°
Sets 03:02:50 0° 2° (N) 2,722 8.0 -5.6°
